Weather in Misawa

Japan     40°46′09″N   141°23′06″E
temp.,
°C
wind,
m/s
gust,
m/s
humid.,
%
clouds,
%
prec.,
mm/h
press.,
hPa
HPBL,
m
19 april, mon
mon1900:00+8w91485100 1.5 9891343
03:00+7w142384100 2.6 9931497
06:00+8wnw142285100 0.1 9971483
09:00+9wnw13197365 0.2 10001277
12:00+13w10165139 0.0 1001976
15:00+13w1016485 0.0 1003845
18:00+11w915560 0.0 1005715
21:00+10wsw712570 0.0 1008426
20 april, tue
tue2000:00+10sw712650 0.0 1008331
03:00+10sw914710 0.0 1008432
06:00+11sw1015690 0.0 1009514
09:00+13sw1015640 0.0 1009432
12:00+15wsw1116636 0.0 1008648
15:00+11wnw1317450 0.1 10121145
18:00+8wnw1218480 0.0 10151409
21:00+8w816400 0.0 10171744
21 april, wed
wed2100:00+8w1118440 0.0 10161179
03:00+9w1017470 0.0 10161122
06:00+9w917520 0.0 10161172
09:00+11wnw1219520 0.0 10161451
12:00+12wnw1218440 0.0 10151148
15:00+12wnw1219460 0.0 10151044
18:00+11wnw1117490 0.0 1016851
21:00+9wnw815560 0.0 1017504
22 april, thu
thu2200:00+9wnw712590 0.0 1017345
03:00+8wnw814690 0.0 1017459
06:00+9nw814700 0.0 1018743
09:00+9n1012650 0.0 10211088
12:00+8nne79610 0.0 1022813
15:00+8nne68550 0.0 1022599
18:00+9nne48560 0.0 1022356
21:00+9wnw22600 0.0 102348
23 april, fri
fri2300:00+8nw23600 0.0 1024203
03:00+7nnw33680 0.0 1024314
06:00+6nw22700 0.0 1024256
09:00+8n33590 0.0 1023430
12:00+9ne33580 0.0 1022318
15:00+9ene32610 0.0 1021278
18:00+9se22630 0.0 1021124
21:00+9s22660 0.0 102137